Location: *
(35.1500°N, 76.6700°W)
Time: 20:18:16
(UTC+00:00)

USA 116 - Pass Details

Date: 13 October 2019
Orbit: 405 x 834 km, 97.9° (Epoch: 18 November)

Event Time Altitude Azimuth Distance (km) Brightness Sun altitude
Rises 22:54:46 0° 25° (NNE) 2,336 6.6 -4.9°
Reaches altitude 10° 22:56:55 10° 39° (NE) 1,485 5.5 -5.4°
Maximum altitude 22:59:38 27° 99° (E) 859 4.2 -5.9°
Drops below altitude 10° 23:02:28 10° 159° (SSE) 1,556 5.9 -6.5°
Sets 23:04:46 0° 172° (S) 2,475 7.0 -7.0°
